Showing default

COSMOS 531, 6266

Orbit data source: Space-Track

COSMOS 531, 6266 is a payload satellite owned by OKB-10 (CIS) in LEO that was launched on Wed, 01 Nov 1972 UTC via a KOSMOS 11K65M launch vehicle from the Plesetsk Missile And Space Complex (PKMTR). Payload-class satellites include a variety of spacecraft equipped with specific instruments for various scientific and technological missions. These include communications satellites like Starlink; space stations such as the ISS; scientific satellites like the Hubble; Earth observation satellites from companies like Planet Labs, Umbra, and HawkEye 360; GPS; miniature CubeSats for education and research; and military/defense satellites.

Loading next visibility...
Identifier
6266, 1972-087D
Orbit
LEO
Country
Flag of CISCIS
Related business
Manufacturer
OKB-10
Mission
Spacecraft
Bus & Motor
STRELA-1 11F625, Unknown motor
Mass
60 kg wet, 60 kg dry
Launch date (UTC)
1972-11-01 (54 years ago)
Launch vehicle
KOSMOS 11K65M
Launch site
Plesetsk Missile And Space Complex (PKMTR)
Object type
Payload
Rocket body
Debris
Shape & HBR
Unknown
Radar Cross Section
Medium (>0.1 m² and <1 m²)

Expand to show TLE details & history
Last TLE update: 2 days ago

TLE from 2 days ago
0 COSMOS 531
1  6266U 72087D   26171.32914950  .00000001  00000-0  10750-3 0  9991
2  6266  74.0346 111.1132 0031580 278.1615 204.7932 12.54805287456669
Epoch: 2026-06-20T07:53Z
TLE epoch observation values (Epoch: 2026-06-20T07:53:58.516Z)
Latitude
54.01084°
Longitude
-119.0048°
Altitude
1,475.382 km
Speed
7.12 km/s
True Right ascension
17h 52m 08s
True Declination
53° 51' 44"
Sunlit
Object was in daylight at epoch
Visualization orbit readout
Latitude
Unknown
Longitude
Unknown
Altitude
Unknown
Speed
Unknown
Apparent Right ascension
Unknown
Apparent Declination
Unknown
Sunlit
N/A
Visualization observer readout
Local Sidereal Time
23:08:12
Azimuth
Unknown
Elevation
Unknown
Doppler factor
Unknown
Orbital elements
Apogee altitude
1,466.986 km
Perigee altitude
1,417.592 km
Semi-major axis
7,820.426 km
Eccentricity
0.00316
Inclination
74.0346°
RAAN
111.1132°
Arg. of periapsis
278.1615°
True anomaly
204.64199°
Mean anomaly
204.7932°
Eccentric anomaly
204.71754°
Mean motion
3.13832 °/min
Orbital period
114.71 mins
BSTAR
0.0001075
Loading maneuver chart data...
Computing Atmospheric mass density...
Loading historical data...
Loading historical data...
Loading historical data...
Loading historical data...
Loading historical data...
Loading historical data...
Loading historical data...

Documentation

Showing up to 5 results
|